Time,TemperatureF,DewpointF,PressureIn,WindDirection,WindDirectionDegrees,WindSpeedMPH,WindSpeedGustMPH,Humidity,HourlyPrecipIn,Conditions,Clouds,dailyrainin,SoftwareType,DateUTC
2013-06-23 00:02:00,57.0,20.0,30.14,South,169,4.0,14.0,23,0.00,,,0.00,,2013-06-23 06:02:00,
2013-06-23 00:12:00,57.0,20.0,30.14,South,169,4.0,14.0,23,0.00,,,0.00,,2013-06-23 06:12:00,
2013-06-23 00:22:00,57.0,19.0,30.14,NW,309,10.0,19.0,22,0.00,,,0.00,,2013-06-23 06:22:00,
2013-06-23 00:33:00,56.0,20.0,30.13,SSW,198,7.0,14.0,24,0.00,,,0.00,,2013-06-23 06:33:00,
2013-06-23 00:43:00,56.0,20.0,30.13,SSW,198,7.0,14.0,24,0.00,,,0.00,,2013-06-23 06:43:00,
2013-06-23 00:52:00,54.0,19.0,30.13,South,191,5.0,13.0,25,0.00,,,0.00,,2013-06-23 06:52:00,
2013-06-23 01:02:00,53.0,19.0,30.13,South,180,6.0,14.0,26,0.00,,,0.00,,2013-06-23 07:02:00,
2013-06-23 01:12:00,53.0,19.0,30.13,South,180,6.0,14.0,26,0.00,,,0.00,,2013-06-23 07:12:00,
2013-06-23 01:22:00,53.0,20.0,30.13,South,174,9.0,13.0,27,0.00,,,0.00,,2013-06-23 07:22:00,
2013-06-23 01:34:00,53.0,20.0,30.15,South,190,6.0,16.0,27,0.00,,,0.00,,2013-06-23 07:34:00,
2013-06-23 01:43:00,53.0,20.0,30.15,South,190,6.0,16.0,27,0.00,,,0.00,,2013-06-23 07:43:00,
2013-06-23 01:53:00,52.0,20.0,30.16,South,185,2.0,12.0,28,0.00,,,0.00,,2013-06-23 07:53:00,
2013-06-23 02:02:00,52.0,20.0,30.17,SSE,161,3.0,12.0,28,0.00,,,0.00,,2013-06-23 08:02:00,
2013-06-23 02:11:00,52.0,20.0,30.17,SSE,161,3.0,12.0,28,0.00,,,0.00,,2013-06-23 08:11:00,
2013-06-23 02:22:00,51.0,20.0,30.17,WSW,241,4.0,12.0,29,0.00,,,0.00,,2013-06-23 08:22:00,
2013-06-23 02:33:00,51.0,21.0,30.18,SSE,168,0.0,16.0,30,0.00,,,0.00,,2013-06-23 08:33:00,
2013-06-23 02:42:00,51.0,21.0,30.18,SSE,168,0.0,16.0,30,0.00,,,0.00,,2013-06-23 08:42:00,
2013-06-23 02:53:00,50.0,21.0,30.17,SSE,152,0.0,4.0,31,0.00,,,0.00,,2013-06-23 08:53:00,
2013-06-23 03:02:00,49.0,20.0,30.18,NNW,344,0.0,4.0,32,0.00,,,0.00,,2013-06-23 09:02:00,
2013-06-23 03:12:00,49.0,20.0,30.18,NNW,344,0.0,4.0,32,0.00,,,0.00,,2013-06-23 09:12:00,
2013-06-23 03:22:00,48.0,20.0,30.17,NNW,344,0.0,2.0,33,0.00,,,0.00,,2013-06-23 09:22:00,
2013-06-23 03:34:00,48.0,20.0,30.18,NNW,344,0.0,0.0,33,0.00,,,0.00,,2013-06-23 09:34:00,
2013-06-23 03:43:00,48.0,20.0,30.18,NNW,344,0.0,0.0,33,0.00,,,0.00,,2013-06-23 09:43:00,
2013-06-23 03:54:00,46.0,20.0,30.20,NNW,336,2.0,6.0,35,0.00,,,0.00,,2013-06-23 09:54:00,
2013-06-23 04:02:00,43.0,19.0,30.19,NNW,336,3.0,9.0,38,0.00,,,0.00,,2013-06-23 10:02:00,
2013-06-23 04:11:00,43.0,19.0,30.19,NNW,336,3.0,9.0,38,0.00,,,0.00,,2013-06-23 10:11:00,
2013-06-23 04:22:00,43.0,20.0,30.19,West,280,3.0,5.0,39,0.00,,,0.00,,2013-06-23 10:22:00,
2013-06-23 04:34:00,45.0,20.0,30.19,WSW,246,3.0,5.0,37,0.00,,,0.00,,2013-06-23 10:34:00,
2013-06-23 04:43:00,45.0,20.0,30.19,WSW,246,3.0,5.0,37,0.00,,,0.00,,2013-06-23 10:43:00,
2013-06-23 04:53:00,45.0,20.0,30.19,SW,234,5.0,13.0,37,0.00,,,0.00,,2013-06-23 10:53:00,
2013-06-23 05:01:00,44.0,20.0,30.19,WSW,245,5.0,9.0,38,0.00,,,0.00,,2013-06-23 11:01:00,
2013-06-23 05:11:00,44.0,20.0,30.19,WSW,245,5.0,9.0,38,0.00,,,0.00,,2013-06-23 11:11:00,
2013-06-23 05:22:00,45.0,20.0,30.20,SW,231,12.0,15.0,37,0.00,,,0.00,,2013-06-23 11:22:00,
2013-06-23 05:33:00,45.0,21.0,30.19,SSW,207,6.0,13.0,38,0.00,,,0.00,,2013-06-23 11:33:00,
2013-06-23 05:43:00,45.0,21.0,30.19,SSW,207,6.0,13.0,38,0.00,,,0.00,,2013-06-23 11:43:00,
2013-06-23 05:53:00,43.0,21.0,30.20,SSW,195,5.0,10.0,41,0.00,,,0.00,,2013-06-23 11:53:00,
2013-06-23 06:01:00,45.0,21.0,30.20,SSW,210,6.0,11.0,38,0.00,,,0.00,,2013-06-23 12:01:00,
2013-06-23 06:12:00,45.0,21.0,30.20,SSW,210,6.0,11.0,38,0.00,,,0.00,,2013-06-23 12:12:00,
2013-06-23 06:22:00,45.0,22.0,30.19,WSW,241,7.0,12.0,39,0.00,,,0.00,,2013-06-23 12:22:00,
2013-06-23 06:33:00,45.0,22.0,30.21,SSW,201,4.0,14.0,39,0.00,,,0.00,,2013-06-23 12:33:00,
2013-06-23 06:42:00,45.0,22.0,30.21,SSW,201,4.0,14.0,39,0.00,,,0.00,,2013-06-23 12:42:00,
2013-06-23 07:34:00,48.0,23.0,30.19,SW,215,0.0,13.0,37,0.00,,,0.00,,2013-06-23 13:34:00,
2013-06-23 07:43:00,48.0,23.0,30.19,SW,215,0.0,13.0,37,0.00,,,0.00,,2013-06-23 13:43:00,
2013-06-23 07:54:00,48.0,23.0,30.19,South,175,4.0,13.0,37,0.00,,,0.00,,2013-06-23 13:54:00,
2013-06-23 08:04:00,49.0,23.0,30.19,SSW,200,8.0,16.0,36,0.00,,,0.00,,2013-06-23 14:04:00,
2013-06-23 08:11:00,49.0,23.0,30.19,SSW,200,8.0,16.0,36,0.00,,,0.00,,2013-06-23 14:11:00,
2013-06-23 08:22:00,51.0,24.0,30.20,South,186,14.0,26.0,35,0.00,,,0.00,,2013-06-23 14:22:00,
2013-06-23 08:34:00,51.0,24.0,30.19,SSE,159,5.0,13.0,34,0.00,,,0.00,,2013-06-23 14:34:00,
2013-06-23 08:44:00,51.0,24.0,30.19,SSE,159,5.0,13.0,34,0.00,,,0.00,,2013-06-23 14:44:00,
2013-06-23 08:52:00,54.0,36.0,30.21,NE,56,4.0,15.0,51,0.00,,,0.00,,2013-06-23 14:52:00,
2013-06-23 09:05:00,54.0,37.0,30.19,ENE,59,3.0,16.0,53,0.00,,,0.00,,2013-06-23 15:05:00,
2013-06-23 09:11:00,54.0,37.0,30.19,ENE,59,3.0,16.0,53,0.00,,,0.00,,2013-06-23 15:11:00,
2013-06-23 09:22:00,55.0,36.0,30.20,ENE,62,2.0,12.0,48,0.00,,,0.00,,2013-06-23 15:22:00,
2013-06-23 09:35:00,56.0,35.0,30.19,NE,56,0.0,12.0,45,0.00,,,0.00,,2013-06-23 15:35:00,
2013-06-23 09:43:00,56.0,35.0,30.19,NE,56,0.0,12.0,45,0.00,,,0.00,,2013-06-23 15:43:00,
2013-06-23 09:53:00,58.0,34.0,30.18,East,85,0.0,1.0,40,0.00,,,0.00,,2013-06-23 15:53:00,
2013-06-23 10:06:00,60.0,31.0,30.16,South,180,0.0,0.0,33,0.00,,,0.00,,2013-06-23 16:06:00,
2013-06-23 10:11:00,60.0,31.0,30.16,South,180,0.0,0.0,33,0.00,,,0.00,,2013-06-23 16:11:00,
2013-06-23 10:22:00,63.0,33.0,30.16,SE,130,1.0,9.0,32,0.00,,,0.00,,2013-06-23 16:22:00,
2013-06-23 10:36:00,65.0,24.0,30.16,SSW,213,0.0,6.0,21,0.00,,,0.00,,2013-06-23 16:36:00,
2013-06-23 10:42:00,65.0,24.0,30.16,SSW,213,0.0,6.0,21,0.00,,,0.00,,2013-06-23 16:42:00,
2013-06-23 11:11:00,69.0,24.0,30.14,WSW,244,7.0,24.0,18,0.00,,,0.00,,2013-06-23 17:11:00,
2013-06-23 11:33:00,70.0,23.0,30.14,South,179,8.0,24.0,17,0.00,,,0.00,,2013-06-23 17:33:00,
2013-06-23 11:43:00,70.0,23.0,30.14,South,179,8.0,24.0,17,0.00,,,0.00,,2013-06-23 17:43:00,
2013-06-23 11:53:00,71.0,23.0,30.14,SW,219,10.0,16.0,16,0.00,,,0.00,,2013-06-23 17:53:00,
2013-06-23 12:01:00,72.0,22.0,30.14,SSW,211,0.0,13.0,15,0.00,,,0.00,,2013-06-23 18:01:00,
2013-06-23 12:11:00,72.0,22.0,30.14,SSW,211,0.0,13.0,15,0.00,,,0.00,,2013-06-23 18:11:00,
2013-06-23 12:22:00,72.0,22.0,30.14,South,179,3.0,12.0,15,0.00,,,0.00,,2013-06-23 18:22:00,
2013-06-23 12:34:00,73.0,24.0,30.11,South,186,9.0,15.0,16,0.00,,,0.00,,2013-06-23 18:34:00,
2013-06-23 12:42:00,73.0,24.0,30.11,South,186,9.0,15.0,16,0.00,,,0.00,,2013-06-23 18:42:00,
2013-06-23 12:53:00,73.0,26.0,30.11,SW,220,3.0,18.0,17,0.00,,,0.00,,2013-06-23 18:53:00,
2013-06-23 13:01:00,75.0,26.0,30.11,WSW,242,0.0,9.0,16,0.00,,,0.00,,2013-06-23 19:01:00,
2013-06-23 13:11:00,75.0,26.0,30.11,WSW,242,0.0,9.0,16,0.00,,,0.00,,2013-06-23 19:11:00,
2013-06-23 13:21:00,74.0,25.0,30.10,West,281,0.0,17.0,16,0.00,,,0.00,,2013-06-23 19:21:00,
2013-06-23 13:32:00,75.0,24.0,30.10,SSW,206,0.0,8.0,15,0.00,,,0.00,,2013-06-23 19:32:00,
2013-06-23 13:43:00,75.0,24.0,30.10,SSW,206,0.0,8.0,15,0.00,,,0.00,,2013-06-23 19:43:00,
2013-06-23 13:53:00,76.0,25.0,30.09,SSW,211,4.0,15.0,15,0.00,,,0.00,,2013-06-23 19:53:00,
2013-06-23 14:02:00,77.0,24.0,30.10,WSW,247,1.0,11.0,14,0.00,,,0.00,,2013-06-23 20:02:00,
2013-06-23 14:12:00,77.0,24.0,30.10,WSW,247,1.0,11.0,14,0.00,,,0.00,,2013-06-23 20:12:00,
2013-06-23 14:24:00,76.0,25.0,30.10,WSW,245,2.0,19.0,15,0.00,,,0.00,,2013-06-23 20:24:00,
2013-06-23 14:33:00,74.0,25.0,30.10,WSW,245,0.0,19.0,16,0.00,,,0.00,,2013-06-23 20:33:00,
2013-06-23 14:42:00,74.0,25.0,30.10,WSW,245,0.0,19.0,16,0.00,,,0.00,,2013-06-23 20:42:00,
2013-06-23 14:53:00,76.0,25.0,30.08,South,179,12.0,24.0,15,0.00,,,0.00,,2013-06-23 20:53:00,
2013-06-23 15:01:00,76.0,28.0,30.09,SW,222,5.0,10.0,17,0.00,,,0.00,,2013-06-23 21:01:00,
2013-06-23 15:11:00,76.0,28.0,30.09,SW,222,5.0,10.0,17,0.00,,,0.00,,2013-06-23 21:11:00,
2013-06-23 15:22:00,76.0,27.0,30.08,SSW,211,6.0,17.0,16,0.00,,,0.00,,2013-06-23 21:22:00,
2013-06-23 15:33:00,77.0,27.0,30.08,SW,234,5.0,21.0,16,0.00,,,0.00,,2013-06-23 21:33:00,
2013-06-23 15:44:00,77.0,27.0,30.08,SW,234,5.0,21.0,16,0.00,,,0.00,,2013-06-23 21:44:00,
2013-06-23 15:52:00,77.0,27.0,30.07,WSW,238,3.0,16.0,16,0.00,,,0.00,,2013-06-23 21:52:00,
2013-06-23 16:01:00,77.0,27.0,30.07,SW,218,0.0,10.0,16,0.00,,,0.00,,2013-06-23 22:01:00,
2013-06-23 16:11:00,77.0,27.0,30.07,SW,218,0.0,10.0,16,0.00,,,0.00,,2013-06-23 22:11:00,
2013-06-23 16:22:00,76.0,25.0,30.08,West,263,0.0,4.0,15,0.00,,,0.00,,2013-06-23 22:22:00,
2013-06-23 16:32:00,77.0,26.0,30.07,SSE,161,6.0,16.0,15,0.00,,,0.00,,2013-06-23 22:32:00,
2013-06-23 16:43:00,77.0,26.0,30.07,SSE,161,6.0,16.0,15,0.00,,,0.00,,2013-06-23 22:43:00,
2013-06-23 16:53:00,77.0,27.0,30.07,SSW,196,6.0,15.0,16,0.00,,,0.00,,2013-06-23 22:53:00,
2013-06-23 17:01:00,76.0,25.0,30.06,South,184,0.0,29.0,15,0.00,,,0.00,,2013-06-23 23:01:00,
2013-06-23 17:11:00,76.0,25.0,30.06,South,184,0.0,29.0,15,0.00,,,0.00,,2013-06-23 23:11:00,
2013-06-23 17:22:00,76.0,27.0,30.06,SW,225,10.0,16.0,16,0.00,,,0.00,,2013-06-23 23:22:00,
2013-06-23 17:33:00,76.0,27.0,30.05,SSW,194,3.0,24.0,16,0.00,,,0.00,,2013-06-23 23:33:00,
2013-06-23 17:44:00,76.0,27.0,30.05,SSW,194,3.0,24.0,16,0.00,,,0.00,,2013-06-23 23:44:00,
2013-06-23 17:52:00,76.0,28.0,30.05,West,271,3.0,16.0,17,0.00,,,0.00,,2013-06-23 23:52:00,
2013-06-23 18:01:00,74.0,28.0,30.06,WSW,245,0.0,6.0,18,0.00,,,0.00,,2013-06-24 00:01:00,
2013-06-23 18:11:00,74.0,28.0,30.06,WSW,245,0.0,6.0,18,0.00,,,0.00,,2013-06-24 00:11:00,
2013-06-23 18:22:00,76.0,28.0,30.04,South,178,0.0,0.0,17,0.00,,,0.00,,2013-06-24 00:22:00,
2013-06-23 18:33:00,75.0,27.0,30.03,SSW,207,6.0,20.0,17,0.00,,,0.00,,2013-06-24 00:33:00,
2013-06-23 18:42:00,75.0,27.0,30.03,SSW,207,6.0,20.0,17,0.00,,,0.00,,2013-06-24 00:42:00,
2013-06-23 18:52:00,74.0,26.0,30.04,West,279,0.0,1.0,17,0.00,,,0.00,,2013-06-24 00:52:00,
2013-06-23 19:01:00,75.0,29.0,30.04,SW,221,0.0,0.0,18,0.00,,,0.00,,2013-06-24 01:01:00,
2013-06-23 19:11:00,75.0,29.0,30.04,SW,221,0.0,0.0,18,0.00,,,0.00,,2013-06-24 01:11:00,
2013-06-23 19:22:00,74.0,28.0,30.04,WSW,257,0.0,1.0,18,0.00,,,0.00,,2013-06-24 01:22:00,
2013-06-23 19:32:00,73.0,28.0,30.05,WNW,286,0.0,2.0,19,0.00,,,0.00,,2013-06-24 01:32:00,
2013-06-23 19:42:00,73.0,28.0,30.05,WNW,286,0.0,2.0,19,0.00,,,0.00,,2013-06-24 01:42:00,
2013-06-23 19:53:00,71.0,28.0,30.05,WNW,290,0.0,0.0,20,0.00,,,0.00,,2013-06-24 01:53:00,
2013-06-23 20:01:00,71.0,28.0,30.04,NW,313,0.0,6.0,20,0.00,,,0.00,,2013-06-24 02:01:00,
2013-06-23 20:11:00,71.0,28.0,30.04,NW,313,0.0,6.0,20,0.00,,,0.00,,2013-06-24 02:11:00,
2013-06-23 20:22:00,70.0,28.0,30.05,WNW,292,0.0,0.0,21,0.00,,,0.00,,2013-06-24 02:22:00,
2013-06-23 20:33:00,68.0,27.0,30.06,NW,311,0.0,0.0,21,0.00,,,0.00,,2013-06-24 02:33:00,
2013-06-23 20:42:00,68.0,27.0,30.06,NW,311,0.0,0.0,21,0.00,,,0.00,,2013-06-24 02:42:00,
2013-06-23 20:53:00,68.0,27.0,30.06,NW,313,0.0,0.0,21,0.00,,,0.00,,2013-06-24 02:53:00,
2013-06-23 21:01:00,66.0,27.0,30.06,NW,307,0.0,3.0,23,0.00,,,0.00,,2013-06-24 03:01:00,
2013-06-23 21:11:00,66.0,27.0,30.06,NW,307,0.0,3.0,23,0.00,,,0.00,,2013-06-24 03:11:00,
2013-06-23 21:22:00,66.0,27.0,30.06,NW,314,0.0,0.0,23,0.00,,,0.00,,2013-06-24 03:22:00,
2013-06-23 21:33:00,66.0,30.0,30.07,SW,221,6.0,12.0,26,0.00,,,0.00,,2013-06-24 03:33:00,
2013-06-23 21:43:00,66.0,30.0,30.07,SW,221,6.0,12.0,26,0.00,,,0.00,,2013-06-24 03:43:00,
2013-06-23 21:53:00,65.0,32.0,30.07,South,173,5.0,10.0,29,0.00,,,0.00,,2013-06-24 03:53:00,
2013-06-23 22:02:00,63.0,33.0,30.08,SSW,198,0.0,0.0,33,0.00,,,0.00,,2013-06-24 04:02:00,
2013-06-23 22:12:00,63.0,33.0,30.08,SSW,198,0.0,0.0,33,0.00,,,0.00,,2013-06-24 04:12:00,
2013-06-23 22:22:00,62.0,33.0,30.07,SSW,210,0.0,2.0,34,0.00,,,0.00,,2013-06-24 04:22:00,
2013-06-23 22:33:00,62.0,33.0,30.07,SSW,210,0.0,2.0,34,0.00,,,0.00,,2013-06-24 04:33:00,
2013-06-23 22:43:00,61.0,34.0,30.08,SW,232,0.0,11.0,36,0.00,,,0.00,,2013-06-24 04:43:00,
2013-06-23 22:53:00,60.0,34.0,30.08,SSW,204,0.0,3.0,37,0.00,,,0.00,,2013-06-24 04:53:00,
2013-06-23 23:02:00,60.0,34.0,30.09,SSW,196,0.0,2.0,38,0.00,,,0.00,,2013-06-24 05:02:00,
2013-06-23 23:12:00,60.0,34.0,30.09,SSW,196,0.0,2.0,38,0.00,,,0.00,,2013-06-24 05:12:00,
2013-06-23 23:22:00,59.0,33.0,30.07,WSW,237,0.0,5.0,38,0.00,,,0.00,,2013-06-24 05:22:00,
2013-06-23 23:35:00,59.0,33.0,30.07,SSW,206,0.0,5.0,38,0.00,,,0.00,,2013-06-24 05:35:00,
2013-06-23 23:44:00,59.0,33.0,30.07,SSW,206,0.0,5.0,38,0.00,,,0.00,,2013-06-24 05:44:00,
2013-06-23 23:55:00,59.0,33.0,30.07,WSW,256,0.0,1.0,37,0.00,,,0.00,,2013-06-24 05:55:00,